Location: Kimberly
(42.5380°N, 114.3640°W)
Time: 17:36:21
(UTC-07:00)

X-37B - Visible Passes

Search period start: 16 January 2021 00:00
Search period end: 26 January 2021 00:00
Orbit: 384 x 390 km, 45.0° (Epoch: 02 January)

Date Brightness Start Highest point End Pass type
(mag) Time Alt. Az. Time Alt. Az. Time Alt. Az.
17 Jan 2.5 19:27:42 10° SSW 19:29:24 22° S 19:29:24 22° S visible
18 Jan 2.7 18:30:06 10° S 18:32:11 16° SE 18:33:47 12° ESE visible
18 Jan 3.6 20:05:16 10° WSW 20:06:04 16° WSW 20:06:04 16° WSW visible
19 Jan 1.0 19:06:57 10° SW 19:10:01 47° SSE 19:10:23 44° SE visible
20 Jan 2.0 18:08:52 10° SSW 18:11:39 28° SSE 18:14:26 10° E visible
20 Jan 2.2 19:44:55 10° W 19:46:57 35° W 19:46:57 35° W visible
21 Jan 0.5 18:46:26 10° WSW 18:49:37 78° SSE 18:51:11 27° ENE visible
21 Jan 4.1 20:23:14 10° W 20:23:27 11° W 20:23:27 11° W visible
22 Jan 0.9 19:24:39 10° W 19:27:40 57° NNW 19:27:40 57° NNW visible
23 Jan 0.6 18:26:05 10° W 18:29:16 73° NNW 18:31:52 15° ENE visible
23 Jan 3.2 20:02:59 10° WNW 20:04:08 20° WNW 20:04:08 20° WNW visible
24 Jan 1.0 19:04:24 10° W 19:07:32 51° N 19:08:20 39° NE visible
25 Jan 1.9 19:42:39 10° WNW 19:44:50 38° NW 19:44:50 38° NW visible
